User: anonymous   Login
Location: Kelowna
(49.8880°N, 119.4960°W)
Time: 16:57:07
(UTC-07:00)
Language:

CAS-4A - Orbit

View from above orbital plane
View from above orbital plane
View from above satellite
View from above satellite

Ground track
Ground track

The orbit data is extracted from the following two-line orbital elements,

1 42761U 17034D   24114.57131362  .00025730  00000-0  98171-3 0  9991
2 42761  43.0171 173.1276 0011943 347.6023  12.4533 15.26130291379050
Epoch (UTC): 23 April 2024 13:42:41
Eccentricity: 0.0011943
inclination: 43.0171°
perigee height: 479 km
apogee height: 495 km
right ascension of ascending node: 173.1276°
argument of perigee: 347.6023°
revolutions per day: 15.26130291
mean anomaly at epoch: 12.4533°
orbit number at epoch: 37905

The dashed part of the orbit path shows where the satellite is in the earth's shadow,  

DLR